Terminal Aerodrome Forecast
Issued by NWS

Home | Current Version | Previous Version | Text Only | Print | Product List | Glossary On
Versions: 1 2 3 4 5 6 7 8 9 10 11 12 13 14 15 16 17 18 19 20 21 22 23 24 25 26
000
FTUS41 KGYX 260949 AAA
TAFAUG
TAF AMD
KAUG 260949Z 2610/2706 26007G17KT P6SM SKC
     FM261400 27011G18KT P6SM SCT080
     FM262000 26008KT P6SM BKN250=

USA.gov is the U.S. government's official web portal to all federal, state and local government web resources and services.